SCP
1 1 1 1 1 2 2 3 2 2 2 1 1 1 1 1 1 1 1 1 1 1 1 1 1 1 1 1 1 1 1 1 0 0 0 0 0 0 0 0 0 0 0
1 1 1 1 1 2 2 2 2 2 2 1 1 1 1 1 1 1 1 1 1 1 1 1 1 1 1 1 1 1 1 0 0 0 0 0 0 0 0 0 0 0 0
1 1 1 1 1 2 2 2 2 2 2 2 1 1 1 1 1 1 1 1 1 1 1 1 1 1 1 1 1 1 0 0 0 0 0 0 0 0 0 0 0 0 0
1 1 1 2 1 1 2 2 2 2 2 2 1 1 1 1 1 1 1 1 1 1 1 1 0 0 0 0 0 0 0 0 0 0 0 0 0 0 0 0 0 0 0
1 1 2 2 2 2 2 2 2 2 2 2 2 2 2 2 2 2 1 1 1 1 1 0 0 0 0 0 0 0 0 0 0 0 0 0 0 0 0 0 0 0 0
1 1 2 2 2 2 2 2 2 2 2 2 1 2 2 2 2 2 1 1 1 1 1 0 0 0 0 0 0 1 1 0 0 0 0 0 0 0 0 0 0 0 0
1 1 1 2 2 2 2 2 2 2 2 2 1 1 1 1 1 1 1 1 1 1 1 1 1 1 0 0 1 1 1 1 1 0 0 0 1 1 1 0 0 0 0
1 1 1 1 2 2 2 2 2 2 2 2 1 1 1 1 1 1 1 1 1 1 1 1 1 1 1 1 1 1 1 1 1 1 0 0 0 1 1 1 1 0 0
1 1 1 1 1 1 2 2 2 2 2 2 1 1 1 1 1 1 1 1 1 1 1 1 1 1 1 1 1 1 1 1 1 1 1 1 0 1 1 1 1 0 0
1 1 1 1 1 1 1 2 2 2 2 1 1 1 1 1 1 1 1 1 1 1 1 1 1 1 1 1 1 1 1 1 1 1 1 1 1 1 1 1 1 0 0
1 1 1 1 1 1 1 1 1 1 1 1 1 1 1 1 1 1 1 1 1 1 1 1 1 1 1 1 1 1 1 1 1 1 1 1 1 1 1 0 0 0 0
1 1 1 1 1 1 1 1 1 1 1 1 1 1 1 1 1 1 1 1 1 1 1 1 1 1 1 1 1 1 1 1 1 1 1 1 1 1 0 0 0 0 0
1 1 1 1 1 1 1 1 1 1 1 1 1 1 1 1 1 1 1 1 1 1 1 1 1 1 1 1 1 1 1 1 1 1 1 1 0 0 0 0 0 0 0
1 1 1 1 1 1 1 1 1 1 1 1 1 1 1 1 1 1 1 1 1 1 1 1 1 0 0 0 1 1 1 1 1 1 0 0 0 0 0 0 0 0 0
1 1 1 1 1 1 1 1 1 1 1 1 1 1 1 1 1 1 1 1 1 1 1 1 1 0 0 0 0 0 0 1 1 0 0 0 0 0 0 0 0 0 0
1 1 1 1 1 1 1 1 1 1 1 0 0 1 1 1 1 1 1 1 1 1 1 1 1 0 0 0 0 0 0 0 0 0 0 0 0 0 0 0 0 0 0
1 1 1 1 1 1 1 1 1 1 0 0 0 0 0 1 1 1 1 1 1 1 1 1 0 0 0 0 0 0 0 0 0 0 0 0 0 0 0 0 0 0 0
1 1 1 1 1 1 1 1 1 0 0 0 0 0 0 0 0 1 1 1 1 1 1 1 0 0 0 0 0 0 0 0 0 0 0 0 0 0 0 0 0 0 0
1 1 1 1 1 1 1 1 1 0 0 0 0 0 0 0 0 0 0 1 1 1 0 0 0 0 0 0 0 0 0 0 0 0 0 0 0 0 0 0 0 0 0
1 1 1 1 1 1 1 1 1 0 0 0 0 0 0 0 0 0 0 1 1 0 0 0 0 0 0 0 0 0 0 0 0 0 0 0 0 0 0 0 0 0 0
1 1 1 1 1 1 1 1 1 1 0 0 0 0 0 0 0 0 1 1 1 0 0 0 0 0 0 0 0 0 0 0 0 0 0 0 0 0 0 0 0 0 0
1 1 1 1 1 1 1 1 1 1 1 0 0 0 0 0 0 0 1 1 0 0 0 0 0 0 0 0 0 0 0 0 0 0 0 0 0 0 0 0 0 0 0
1 1 1 1 1 1 1 1 1 1 1 1 0 0 0 0 0 0 0 0 0 0 0 0 0 0 0 0 0 0 0 0 0 0 0 0 0 0 0 0 0 0 0
1 1 1 1 1 1 1 1 1 1 1 1 1 0 0 0 0 0 0 0 0 0 0 0 0 0 0 0 0 0 0 0 0 0 0 0 0 0 0 0 0 0 0
1 1 1 1 1 1 1 1 1 1 1 1 0 0 0 0 0 0 0 0 0 0 0 0 0 0 0 0 0 0 0 0 0 0 0 0 0 0 0 0 0 0 0
1 1 1 1 1 1 1 0 1 1 1 1 0 0 0 0 0 0 0 0 0 0 0 0 0 0 0 0 0 0 0 0 0 0 0 0 0 0 0 0 0 0 0
Wind_Speed
8 8 8 7 6 5 5 5 4 4 3 2 3 2 2 1 1 1 2 2 1 0 0 1 0 1 0 0 1 1 1 1 1 1 1 2 1 1 1 1 1 2 2
8 9 9 9 7 5 5 5 4 4 3 2 1 2 2 1 1 1 2 1 1 0 0 0 0 0 0 0 1 1 1 1 0 0 1 1 1 1 1 2 1 1 1
9 9 10 9 9 7 5 5 4 4 2 2 1 1 1 1 1 2 2 1 1 1 1 0 1 0 0 0 1 1 1 1 1 0 0 1 1 1 1 1 1 1 1
9 9 10 10 9 9 7 6 5 4 3 2 1 1 2 1 1 1 1 1 1 0 1 1 0 1 1 0 1 0 1 1 1 1 1 1 1 0 1 1 1 1 1
8 9 8 8 9 9 8 7 6 4 3 2 2 1 1 1 1 1 1 1 1 1 0 0 0 0 1 0 1 1 1 1 1 1 1 2 1 1 2 2 1 1 1
6 7 7 8 7 7 8 8 6 4 3 2 2 1 1 2 1 1 1 1 1 1 0 1 1 0 1 1 1 0 1 1 2 2 2 1 1 1 1 2 2 1 1
6 6 7 7 7 7 7 8 7 5 4 3 2 1 1 2 1 0 0 0 1 1 1 1 1 1 1 1 1 1 1 2 2 2 2 2 2 2 2 1 2 2 1
6 6 6 6 7 8 7 7 7 5 5 4 3 2 1 1 1 1 1 1 1 1 1 1 1 1 1 1 1 1 2 1 2 3 3 2 2 2 2 1 1 2 2
6 6 6 5 5 6 6 7 7 6 5 4 3 3 2 1 1 1 0 1 1 1 2 1 1 1 1 1 1 1 1 1 2 2 2 2 3 2 2 1 1 2 2
6 7 7 6 5 5 6 6 6 6 5 4 3 3 2 2 1 1 1 1 1 1 1 1 1 1 1 1 1 2 1 1 2 2 2 3 2 2 2 2 2 2 2
6 6 7 6 6 6 6 5 5 5 5 4 3 2 2 2 2 1 1 1 1 1 1 1 1 1 1 1 1 2 2 2 2 2 3 3 3 2 2 2 1 2 2
6 6 6 5 5 5 4 4 4 4 4 4 4 3 3 3 2 1 1 1 1 0 0 1 1 2 1 1 1 2 2 2 2 2 2 3 2 2 2 2 2 2 2
5 6 5 3 4 4 4 3 3 3 4 4 4 3 3 2 2 2 2 1 1 1 0 0 1 2 2 2 2 2 2 2 2 2 2 2 2 2 2 2 2 2 2
5 5 4 3 2 3 3 3 3 2 2 3 4 3 3 3 3 2 2 1 1 1 0 0 1 1 1 2 3 3 2 2 2 2 2 2 2 2 3 2 2 2 2
5 4 3 3 2 2 2 2 2 2 2 2 3 4 3 3 3 2 2 1 1 1 0 0 1 1 1 2 3 3 2 2 2 2 2 1 1 2 3 3 2 2 2
4 4 3 3 2 2 1 2 1 1 1 2 2 3 3 3 3 3 2 1 1 1 0 0 1 1 2 3 3 4 3 3 2 2 2 1 1 2 2 4 4 4 3
2 3 3 2 2 2 1 1 1 2 2 2 3 3 4 3 3 3 2 1 1 1 0 0 0 1 1 3 3 4 3 3 2 2 2 3 2 1 1 2 3 3 5
2 2 2 2 1 2 2 1 1 1 1 2 2 2 3 3 3 3 2 1 1 0 1 1 1 0 1 2 2 4 3 3 2 2 2 2 2 3 3 3 2 2 3
2 1 1 0 1 2 2 1 1 1 2 1 1 2 2 2 2 2 2 1 1 1 1 2 2 1 1 1 2 2 3 3 3 2 2 2 1 2 3 3 3 2 2
2 1 1 1 1 2 2 1 1 1 2 1 1 1 1 2 2 2 2 2 2 2 2 2 2 2 1 1 1 1 2 3 2 1 0 2 2 2 2 2 2 3 3
2 1 1 1 1 2 2 2 2 1 2 1 1 1 1 2 3 2 2 2 2 2 2 3 3 2 2 3 3 3 2 3 3 2 1 1 1 2 3 3 2 3 4
1 1 1 1 2 2 2 2 2 1 2 1 1 1 1 3 3 2 2 3 3 3 4 3 3 3 3 3 3 4 4 3 3 2 2 1 2 3 4 3 3 4 4
1 1 1 1 2 2 1 2 2 2 2 1 1 2 2 2 2 3 3 3 3 3 3 3 3 2 2 2 4 5 5 5 3 2 3 3 4 4 4 5 5 3 3
1 1 0 0 1 1 1 1 1 2 2 2 2 2 2 2 2 2 2 3 2 2 3 3 2 1 1 0 0 1 2 3 3 3 3 4 5 5 5 3 2 2 3
1 0 1 1 2 1 1 1 1 1 2 2 2 2 2 2 1 1 1 1 0 1 2 2 1 1 1 1 1 1 1 2 2 3 3 3 2 2 2 1 2 2 2
1 1 1 2 2 1 1 2 2 2 2 3 2 3 3 2 2 2 1 2 1 1 0 1 1 1 0 2 1 2 3 4 4 3 3 3 3 3 2 2 1 1 1
Wind_Direction
161 140 139 140 135 131 135 134 141 137 155 174 190 196 192 182 162 140 113 118 115 109 241 354 3 295 305 330 334 8 291 276 240 305 312 284 229 183 179 186 179 179 177
152 148 150 152 144 142 147 137 142 144 168 172 189 186 180 178 161 115 115 134 133 101 257 2 342 321 330 271 334 353 309 284 266 299 311 304 308 321 212 177 178 193 167
158 160 159 156 150 152 157 155 145 140 154 151 184 189 145 174 141 139 136 127 91 90 27 70 1 296 229 106 302 294 281 297 308 300 294 300 306 322 296 212 192 183 186
162 165 163 159 158 159 160 140 129 132 147 164 176 182 166 154 117 111 119 131 137 125 29 50 61 20 334 119 276 85 298 287 300 298 283 265 252 271 311 291 273 224 225
163 163 159 155 159 157 151 139 134 141 147 160 153 160 131 102 95 93 137 162 149 128 118 117 90 3 312 356 320 0 316 284 278 286 288 276 272 222 218 259 267 256 236
159 155 148 147 148 145 138 132 137 145 144 147 143 155 113 92 79 94 120 158 133 122 66 89 79 13 302 304 282 284 270 277 278 279 282 285 278 267 245 248 248 239 233
155 147 139 140 139 135 135 139 149 149 145 144 139 129 118 140 125 74 89 66 95 118 92 46 46 333 289 290 288 265 281 271 280 277 276 285 279 272 267 257 262 270 271
148 145 137 135 140 146 140 140 144 145 148 148 141 124 126 159 119 80 8 49 38 81 88 64 35 339 311 310 310 286 264 259 267 276 278 279 279 272 261 242 248 267 273
143 133 126 128 139 137 137 141 141 144 150 150 149 140 144 126 95 110 90 50 25 60 74 42 19 333 333 319 309 284 292 276 264 276 281 270 272 267 262 245 222 230 252
139 137 130 133 130 132 128 132 142 149 153 147 159 154 145 132 126 128 107 77 49 57 81 49 12 351 343 322 300 289 300 310 297 286 290 286 285 292 290 290 275 252 241
141 133 135 135 131 129 135 139 147 151 149 149 147 138 141 146 153 145 116 95 68 56 75 40 340 316 311 317 313 310 315 304 303 299 296 291 285 288 283 279 283 266 235
139 130 128 135 134 130 127 135 149 153 154 156 155 154 155 152 150 142 127 99 64 59 44 5 332 326 334 353 330 310 314 308 306 309 306 301 305 295 281 284 274 270 251
129 131 129 131 142 142 143 153 159 153 157 163 157 154 158 160 160 165 158 162 175 213 199 18 339 342 349 351 330 308 303 312 320 320 316 318 321 310 301 281 267 263 268
135 132 126 127 136 137 143 149 152 145 146 151 153 161 174 177 176 173 171 164 184 206 158 348 338 340 1 358 332 320 322 320 323 328 327 317 317 313 302 289 280 273 269
132 128 133 136 141 135 138 149 146 129 143 165 165 172 185 180 176 170 166 155 219 203 81 3 2 341 1 358 350 326 321 321 326 331 317 314 334 324 315 306 295 290 274
141 140 133 131 140 146 165 171 151 153 174 202 183 172 183 176 174 175 165 157 142 77 11 37 1 341 358 7 10 346 320 321 325 319 312 284 261 299 292 297 288 275 265
138 124 114 119 129 147 150 186 183 183 187 204 196 181 180 176 180 181 150 146 147 138 187 226 255 81 7 346 353 343 310 302 300 294 297 308 325 332 308 293 292 284 270
94 81 86 97 129 142 141 136 216 216 208 207 192 178 175 173 169 150 142 145 145 205 228 222 254 195 351 351 337 316 280 277 287 291 294 299 320 337 325 302 308 297 288
84 98 104 84 116 130 130 145 201 210 218 226 210 182 172 169 168 160 159 170 197 231 241 230 226 218 180 297 300 299 287 283 285 280 309 316 344 345 327 315 306 304 308
71 96 111 107 125 126 132 159 211 216 233 242 262 237 188 183 179 169 181 197 207 220 234 243 242 227 186 229 264 266 286 294 289 284 305 41 14 348 333 316 310 308 307
70 91 118 130 114 124 142 178 218 239 260 253 242 214 200 188 177 173 188 208 221 230 236 235 233 221 205 208 217 217 257 293 300 307 316 13 352 322 317 302 292 288 297
78 115 127 136 141 149 168 195 210 245 255 245 231 230 224 221 191 178 203 217 222 232 237 233 226 209 196 215 213 212 232 272 295 304 311 337 310 305 300 285 287 295 301
46 81 136 154 160 162 192 223 219 231 241 236 220 227 230 217 195 200 213 220 222 236 241 240 238 220 191 194 216 219 237 257 261 289 305 292 282 281 270 260 277 285 277
33 40 358 282 240 204 216 239 235 220 221 212 209 227 227 206 197 212 222 225 227 237 247 256 259 243 188 182 211 228 231 241 246 266 283 278 272 267 278 272 258 257 275
19 309 277 273 262 238 219 236 236 208 216 218 220 231 232 214 213 209 273 245 231 271 272 288 289 298 339 14 1 315 298 299 300 292 269 266 264 256 250 244 239 246 256
10 294 269 261 256 242 245 257 233 210 219 219 222 233 227 207 212 202 181 38 178 189 155 355 312 311 216 198 253 302 297 288 284 273 267 264 259 262 259 248 254 256 276